DW6099 Weather Reports


time (UTC)temp
C
wind
direction
speed
KPH
gust
KPH
rain 1hr
cm
rain 24hr
cm
rain mn
cm
humidity
%
barometer
mb
20260505180002 15 166 0.0 0.0 0.00 0.00 0.00 74 1002.4
20260505174606 15 173 0.0 8.0 0.00 0.00 0.00 75 1002.4
20260505173100 15 180 0.0 0.0 0.00 0.00 0.00 74 1002.4
20260505171557 15 159 0.0 3.2 0.00 0.00 0.00 76 1002.4
20260505170054 15 222 0.0 4.8 0.00 0.00 0.00 76 1002.4
20260505164555 14 198 0.0 4.8 0.00 0.00 0.00 77 1002.4
20260505163054 14 255 0.0 4.8 0.00 0.00 0.00 78 1002.4
20260505161554 14 195 0.0 4.8 0.00 0.00 0.00 78 1002.4
20260505153045 13 200 0.0 0.0 0.00 0.00 0.00 83 1002.4
20260505151543 13 200 0.0 0.0 0.00 0.00 0.00 83 1002.4
20260505124536 12 257 0.0 0.0 0.00 0.00 0.00 85 1002.4
20260505123036 12 257 0.0 0.0 0.00 0.00 0.00 86 1002.4
20260505121538 12 257 0.0 0.0 0.00 0.00 0.00 87 1002.4
20260505120034 12 257 0.0 0.0 0.00 0.00 0.00 87 1002.4
20260505114533 12 257 0.0 0.0 0.00 0.00 0.00 87 1002.4
20260505113035 12 257 0.0 0.0 0.00 0.00 0.00 86 1002.4
20260505111532 12 257 0.0 0.0 0.00 0.00 0.00 85 1002.4
20260505101534 12 217 0.0 0.0 0.00 0.00 0.00 83 1002.4
20260505100033 12 222 0.0 0.0 0.00 0.00 0.00 83 1002.4
20260505094528 12 223 0.0 0.0 0.00 0.00 0.00 83 1002.4
20260505093028 12 265 0.0 0.0 0.00 0.00 0.00 84 1002.4
20260505091533 12 267 0.0 4.8 0.00 0.00 0.00 84 1002.4
20260505090038 12 217 0.0 3.2 0.00 0.00 0.00 84 1002.4
20260505084526 12 213 0.0 6.4 0.00 0.00 0.00 84 1002.4
20260505083025 12 189 0.0 6.4 0.00 0.00 0.00 84 1002.4
20260505081524 12 244 0.0 0.0 0.00 0.00 0.00 85 1002.4
20260505080038 12 238 0.0 4.8 0.00 0.00 0.00 85 1002.4
20260505074527 12 234 0.0 4.8 0.00 0.00 0.00 85 1002.4
20260505073029 12 273 0.0 8.0 0.00 0.00 0.00 85 1002.4
20260505071520 12 221 0.0 9.7 0.00 0.00 0.00 85 1002.4
20260505070019 12 249 0.0 4.8 0.00 0.00 0.00 84 1002.4
20260505064520 12 273 1.6 8.0 0.00 0.00 0.00 84 1002.4
20260505063018 12 265 3.2 9.7 0.00 0.00 0.00 84 1002.4
20260505061517 12 257 1.6 11.3 0.00 0.00 0.00 84 1002.4
20260505060017 12 218 0.0 9.7 0.00 0.00 0.00 83 1002.4
20260505054516 12 248 0.0 0.0 0.00 0.00 0.00 82 1002.4
20260505053019 12 255 0.0 9.7 0.00 0.00 0.00 82 1002.4
20260505051515 12 263 0.0 9.7 0.00 0.00 0.00 82 1002.4
20260505041513 14 280 0.0 0.0 0.00 0.00 0.00 79 1002.4
20260505040015 14 280 0.0 0.0 0.00 0.00 0.00 78 1002.4
20260505034512 15 307 0.0 0.0 0.00 0.00 0.00 77 1002.4
20260505033012 15 307 0.0 0.0 0.00 0.00 0.00 75 1002.4
20260505031513 16 307 0.0 0.0 0.00 0.00 0.00 74 1002.4
20260505030011 16 307 0.0 0.0 0.00 0.00 0.00 72 1002.4
20260505024510 17 334 0.0 0.0 0.00 0.00 0.00 71 1002.4
20260505023010 17 347 0.0 0.0 0.00 0.00 0.00 72 1002.4
20260505021513 17 347 0.0 0.0 0.00 0.00 0.00 71 1002.4
20260505020016 18 347 0.0 0.0 0.00 0.00 0.00 70 1002.4
20260505014511 18 259 0.0 8.0 0.00 0.00 0.00 68 1002.4
20260505013009 20 241 0.0 9.7 0.00 0.00 0.00 65 1002.4
20260505011508 20 265 3.2 14.5 0.00 0.00 0.00 63 1002.4
20260505010008 20 265 6.4 14.5 0.00 0.00 0.00 62 1002.4
20260505004513 21 274 6.4 17.7 0.00 0.00 0.00 62 1002.4
20260505003007 21 269 4.8 14.5 0.00 0.00 0.00 60 1002.4
20260505001505 21 262 4.8 16.1 0.00 0.00 0.00 60 1002.4
20260505000008 22 257 4.8 14.5 0.00 0.00 0.00 59 1002.4
20260504234503 22 253 0.0 12.9 0.00 0.00 0.00 61 1002.4
20260504233003 22 271 1.6 11.3 0.00 0.00 0.00 59 1002.4
20260504231501 22 258 3.2 14.5 0.00 0.00 0.00 59 1002.4
20260504230003 23 277 1.6 14.5 0.00 0.00 0.00 57 1002.4
20260504224501 23 227 0.0 8.0 0.00 0.00 0.00 58 1002.4
20260504223102 23 235 4.8 14.5 0.00 0.00 0.00 57 1002.4
20260504221600 23 263 3.2 11.3 0.00 0.00 0.00 56 1002.4
20260504214605 22 213 9.7 16.1 0.00 0.00 0.00 57 1002.4
20260504213057 23 186 6.4 12.9 0.00 0.00 0.00 59 1002.4
20260504211552 22 157 3.2 12.9 0.00 0.00 0.00 62 1002.4
20260504204606 21 194 0.0 8.0 0.00 0.00 0.00 61 1002.4
20260504203101 21 197 3.2 11.3 0.00 0.00 0.00 62 1002.4
20260504201542 20 172 0.0 1.6 0.00 0.00 0.00 66 1002.4
20260504200038 19 205 6.4 11.3 0.00 0.00 0.00 67 1002.4
20260504194534 18 248 1.6 12.9 0.00 0.00 0.00 70 1002.4
20260504193031 17 169 0.0 3.2 0.00 0.00 0.00 70 1002.4
20260504191531 17 228 0.0 3.2 0.00 0.00 0.00 72 1002.4
20260504190025 16 149 1.6 9.7 0.00 0.00 0.00 74 1002.4
20260504184526 16 201 0.0 11.3 0.00 0.00 0.00 75 1002.4
20260504183023 15 239 0.0 11.3 0.00 0.00 0.00 76 1002.4
20260504181523 15 216 1.6 9.7 0.00 0.00 0.00 78 1002.4